ARIANE 5 DEB (SYLDA), 41947

Orbit data source: Space-Track

ARIANE 5 DEB (SYLDA), 41947 is space debris in HEO originally from a launch on Tue, 14 Feb 2017 UTC launched from the French Guiana (FRGUI). Debris objects in space refer to the collection of defunct objects orbiting the Earth. Examples of debris include non-operational satellites, rocket bodies, and fragments generated from explosions, collisions, or faulty payload assembly.

Loading next visibility...
Identifier
41947, 2017-007D
Orbit
HEO
Country
Flag of FRFR
Related business
Manufacturer
ADS/Bremen
Mission
Spacecraft
Bus & Motor
SYLDA 5, Unknown motor
Mass
440 kg wet, 440 kg dry
Launch date (UTC)
2017-02-14 (9 years ago)
Launch vehicle
Unknown
Launch site
French Guiana (FRGUI)
Object type
Payload
Rocket body
Debris
Shape & HBR
Cyl, 2.8 m
Radar Cross Section
27.391 m², Large (>1 m²)

Expand to show TLE details & history
Last TLE update: 14 hours ago

TLE from 14 hours ago
0 ARIANE 5 DEB (SYLDA)
1 41947U 17007D   25310.02409809  .00241275  00000-0  75706-2 0  9991
2 41947   3.9575  96.4230 5004911 192.0369 149.1572  5.71923882 99114
Epoch: 2025-11-06T00:34Z
TLE epoch observation values (Epoch: 2025-11-06T00:34:42.074Z)
Latitude
-0.00006°
Longitude
42.237°
Altitude
13,007.613 km
Speed
3.309 km/s
True Right ascension
06h 25m 36s
True Declination
0° 00' 00"
Sunlit
Object was in daylight at epoch
Visualization orbit readout
Latitude
Unknown
Longitude
Unknown
Altitude
Unknown
Speed
Unknown
Apparent Right ascension
Unknown
Apparent Declination
Unknown
Sunlit
N/A
Visualization observer readout
Local Sidereal Time
10:34:04
Azimuth
Unknown
Elevation
Unknown
Doppler factor
Unknown
Orbital elements
Apogee altitude
13,448.291 km
Perigee altitude
222.02 km
Semi-major axis
13,213.293 km
Eccentricity
0.50049
Inclination
3.9575°
RAAN
96.423°
Arg. of periapsis
192.0369°
True anomaly
167.96682°
Mean anomaly
149.1572°
Eccentric anomaly
159.29554°
Mean motion
1.42898 °/min
Orbital period
251.93 mins
BSTAR
0.0075706
Loading maneuver chart data...
Computing Atmospheric mass density...
Loading historical data...
Loading historical data...
Loading historical data...
Loading historical data...
Loading historical data...
Loading historical data...
Loading historical data...
Other satellites on launch #7 in the year 2017 (2017-02-14 UTC)

Documentation

Showing up to 5 results
|